Location: Borowce
(50.8255°N, 19.6209°E)
Time: 22:28:40
(UTC+00:00)

Cosmos 2082 Rocket - Pass Details

Date: 19 May 2025
Orbit: 832 x 853 km, 71.0° (Epoch: 16 June)

Event Time Altitude Azimuth Distance (km) Brightness Sun altitude
Exits shadow 20:00:11 15° 142° (SE) 2,111 3.6 -11.2°
Maximum altitude 20:03:13 23° 102° (ESE) 1,714 3.4 -11.5°
Drops below altitude 10° 20:07:30 10° 52° (NE) 2,455 4.6 -11.9°
Sets 20:10:24 0° 38° (NE) 3,397 5.6 -12.1°
